CDT,Max TemperatureF,Mean TemperatureF,Min TemperatureF,Max Dew PointF,MeanDew PointF,Min DewpointF,Max Humidity, Mean Humidity, Min Humidity, Max Sea Level PressureIn, Mean Sea Level PressureIn, Min Sea Level PressureIn, Max VisibilityMiles, Mean VisibilityMiles, Min VisibilityMiles, Max Wind SpeedMPH, Mean Wind SpeedMPH, Max Gust SpeedMPH,PrecipitationIn, CloudCover, Events, WindDirDegrees
2013-9-1,85,76,67,74,70,64,100,78,55,29.85,29.81,29.77,10,6,0,12,4,,0.00,4,Fog-Thunderstorm,285
2013-9-2,85,73,60,63,60,55,93,70,47,29.98,29.92,29.85,10,10,10,14,7,18,0.00,1,,333
2013-9-3,80,67,53,61,57,53,100,73,45,30.11,30.06,29.98,10,9,1,8,2,12,0.00,2,,353
2013-9-4,83,68,52,64,57,51,100,72,43,30.18,30.13,30.09,10,9,2,8,2,12,0.00,0,,241
2013-9-5,88,72,56,64,59,54,100,69,37,30.21,30.17,30.14,10,9,1,9,1,12,0.00,0,,88
2013-9-6,85,73,61,66,63,61,100,72,44,30.19,30.12,30.04,10,10,10,10,4,14,0.00,0,,156
2013-9-7,89,76,62,68,64,60,93,69,44,30.04,29.98,29.91,10,10,7,15,6,17,T,0,,205
2013-9-8,84,77,70,72,70,66,93,77,61,29.99,29.93,29.90,10,9,5,22,7,28,0.32,2,Rain-Thunderstorm,183
2013-9-9,93,83,72,75,72,71,93,71,49,29.95,29.91,29.88,10,9,5,14,7,17,0.00,0,,195
2013-9-10,94,83,71,72,68,65,87,63,39,30.06,30.03,29.96,10,10,10,14,6,18,0.00,0,,219
2013-9-11,92,79,66,69,67,64,90,66,41,30.11,30.06,30.01,10,10,10,14,6,18,0.00,1,,231
2013-9-12,82,70,58,69,61,47,100,66,32,30.09,30.04,29.99,10,10,4,18,8,26,0.45,2,Rain,304
2013-9-13,73,63,52,53,47,38,93,61,29,30.17,30.12,30.08,10,10,10,16,8,21,0.00,0,,17
2013-9-14,73,58,42,49,45,42,100,68,35,30.20,30.12,30.06,10,10,10,10,4,18,0.00,0,,134
2013-9-15,76,65,54,63,56,47,90,70,49,30.15,30.06,29.99,10,9,3,16,9,22,0.01,6,Rain,255
2013-9-16,72,63,54,56,54,51,93,71,49,30.31,30.25,30.16,10,10,8,17,10,22,0.00,5,,55
2013-9-17,74,63,51,57,54,49,96,75,53,30.29,30.20,30.09,10,10,10,13,7,15,T,4,Rain,115
2013-9-18,85,74,63,70,65,56,93,76,59,30.09,30.02,29.94,10,10,7,17,9,22,T,3,,171
2013-9-19,92,81,70,71,69,67,87,67,47,29.96,29.91,29.81,10,10,8,20,12,26,0.10,0,,199
2013-9-20,72,62,52,70,64,51,97,84,70,29.92,29.89,29.86,10,9,3,13,6,17,0.12,5,Rain-Thunderstorm,278
2013-9-21,71,59,47,52,49,47,100,72,44,29.96,29.92,29.89,10,10,10,16,7,25,0.00,0,,314
2013-9-22,74,59,44,50,46,43,100,68,35,30.05,29.99,29.96,10,9,1,9,2,13,0.00,0,,65
2013-9-23,76,62,47,50,47,43,93,63,33,30.07,30.01,29.97,10,10,10,14,7,20,0.00,0,,116
2013-9-24,79,65,51,58,54,48,89,69,48,29.99,29.92,29.84,10,10,10,14,7,18,0.00,2,,102
2013-9-25,84,70,55,61,57,53,93,68,43,29.91,29.87,29.84,10,10,10,12,6,16,0.00,1,,53
2013-9-26,83,69,55,62,56,52,86,63,40,30.04,29.99,29.91,10,10,10,12,5,15,0.00,0,,112
2013-9-27,83,68,53,58,52,48,83,57,31,30.13,30.07,30.02,10,10,10,15,7,20,0.00,0,,130
2013-9-28,84,71,58,67,59,53,93,68,43,30.05,29.99,29.93,10,9,4,25,11,32,0.20,4,Rain,180
2013-9-29,74,61,47,61,52,41,100,66,31,30.08,30.03,29.99,10,8,1,14,5,18,0.05,3,Rain,340
2013-9-30,77,61,44,62,52,44,100,70,40,30.00,29.96,29.90,10,8,0,15,6,20,0.00,1,Fog,142